Tracking 29892 objects as of 21-Nov-2024
HD Live streaming from Space Station
objects crossing your sky now

DRUMS

Track DRUMS now!
10-day predictions


NORAD ID: 49401
Int'l Code: 2021-102G
Perigee: 522.9 km
Apogee: 550.0 km
Inclination: 97.4 °
Period: 95.2 minutes
Semi major axis: 6907 km
RCS: Unknown
Launch date: November 9, 2021
Source: Japan (JPN)
Launch site: KAGOSHIMA SPACE CENTER UNIVERSITY OF TOKYO (KSCUT)
Your satellite tracking list
Your tracking list is empty




NASA's NSSDC Master Catalog

Two Line Element Set (TLE):
1 49401U 21102G   24325.71351300  .00008252  00000-0  47853-3 0  9997
2 49401  97.4091   7.8793 0019608  71.4068 288.9290 15.12254660166658
Source of the keplerian elements: AFSPC